CW1740 Weather Reports


Display with metric or nautical units.
time (UTC)temp
F
wind
direction
speed
MPH
gust
MPH
rain 1hr
in
rain 24hr
in
rain mn
in
humidity
%
barometer
mb
20260504050553 58 360 0.0 0.0 0.00 0.00 0.00 66 1007.3
20260504045550 59 360 0.0 0.0 0.00 0.00 0.00 66 1007.3
20260504045050 59 360 0.0 0.0 0.00 0.00 0.00 65 1007.3
20260504044550 59 360 0.0 0.0 0.00 0.00 0.00 65 1007.3
20260504044050 60 360 0.0 0.0 0.00 0.00 0.00 64 1007.4
20260504043550 60 360 0.0 0.0 0.00 0.00 0.00 64 1007.5
20260504043057 60 360 0.0 0.0 0.00 0.00 0.00 64 1007.5
20260504042549 60 360 0.0 0.0 0.00 0.00 0.00 63 1007.5
20260504042050 60 360 0.0 0.0 0.00 0.00 0.00 63 1007.5
20260504041549 60 360 0.0 2.0 0.00 0.00 0.00 63 1007.6
20260504041053 60 360 0.0 2.0 0.00 0.00 0.00 63 1007.5
20260504040549 61 360 0.0 2.0 0.00 0.00 0.00 63 1007.5
20260504040049 61 360 0.0 2.0 0.00 0.00 0.00 63 1007.5
20260504035548 61 360 0.0 1.0 0.00 0.00 0.00 63 1007.5
20260504035048 61 360 0.0 0.0 0.00 0.00 0.00 63 1007.6
20260504034549 61 360 0.0 1.0 0.00 0.00 0.00 62 1007.6
20260504034047 61 360 0.0 1.0 0.00 0.00 0.00 62 1007.7
20260504033550 61 360 0.0 2.0 0.00 0.00 0.00 62 1007.7
20260504033048 61 360 0.0 2.0 0.00 0.00 0.00 62 1007.7
20260504032548 62 360 0.0 2.0 0.00 0.00 0.00 62 1007.8
20260504032050 62 360 0.0 3.0 0.00 0.00 0.00 61 1007.7
20260504031550 62 360 0.0 3.0 0.00 0.00 0.00 61 1007.7
20260504031047 62 360 0.0 3.0 0.00 0.00 0.00 61 1007.8
20260504030548 62 360 0.0 6.0 0.00 0.00 0.00 61 1007.7
20260504030047 62 360 0.0 6.0 0.00 0.00 0.00 61 1007.8
20260504025547 62 360 0.0 3.0 0.00 0.00 0.00 61 1007.8
20260504025048 62 360 0.0 3.0 0.00 0.00 0.00 60 1007.7
20260504024549 62 360 0.0 3.0 0.00 0.00 0.00 60 1007.7
20260504024048 62 360 0.0 2.0 0.00 0.00 0.00 60 1007.7
20260504023546 62 360 0.0 1.0 0.00 0.00 0.00 60 1007.7
20260504023046 62 360 0.0 3.0 0.00 0.00 0.00 59 1007.7
20260504022546 63 360 0.0 3.0 0.00 0.00 0.00 59 1007.7
20260504022046 63 360 0.0 3.0 0.00 0.00 0.00 59 1007.7
20260504021546 63 360 0.0 3.0 0.00 0.00 0.00 59 1007.6
20260504021047 63 360 0.0 4.0 0.00 0.00 0.00 59 1007.6
20260504020548 63 360 0.0 4.0 0.00 0.00 0.00 58 1007.6
20260504020125 63 360 0.0 4.0 0.00 0.00 0.00 58 1007.6
20260504015544 63 360 0.0 4.0 0.00 0.00 0.00 58 1007.7
20260504015045 63 360 0.0 3.0 0.00 0.00 0.00 58 1007.7
20260504014558 64 360 0.0 3.0 0.00 0.00 0.00 57 1007.7
20260504014043 64 360 0.0 3.0 0.00 0.00 0.00 57 1007.6
20260504013543 64 360 0.0 3.0 0.00 0.00 0.00 56 1007.5
20260504013055 64 360 0.0 4.0 0.00 0.00 0.00 56 1007.6
20260504012543 64 360 0.0 4.0 0.00 0.00 0.00 56 1007.5
20260504012047 65 360 0.0 3.0 0.00 0.00 0.00 55 1007.5
20260504011546 65 360 0.0 3.0 0.00 0.00 0.00 55 1007.3
20260504011044 65 360 0.0 3.0 0.00 0.00 0.00 55 1007.4
20260504010544 65 360 0.0 4.0 0.00 0.00 0.00 54 1007.4
20260504010045 65 360 0.0 4.0 0.00 0.00 0.00 54 1007.3
20260504005542 66 360 0.0 4.0 0.00 0.00 0.00 54 1007.4
20260504005042 66 360 0.0 2.0 0.00 0.00 0.00 54 1007.3
20260504004613 66 360 0.0 3.0 0.00 0.00 0.00 53 1007.4
20260504004041 66 360 0.0 4.0 0.00 0.00 0.00 53 1007.3
20260504003541 67 360 0.0 4.0 0.00 0.00 0.00 53 1007.4
20260504003048 67 360 0.0 2.0 0.00 0.00 0.00 52 1007.3
20260504002541 67 360 0.0 3.0 0.00 0.00 0.00 52 1007.4
20260504002041 67 360 0.0 6.0 0.00 0.00 0.00 52 1007.4
20260504001612 67 360 0.0 6.0 0.00 0.00 0.00 51 1007.5
20260504001042 68 360 0.0 5.0 0.00 0.00 0.00 51 1007.5
20260504000540 68 360 1.0 5.0 0.00 0.00 0.00 50 1007.4
20260504000044 68 360 0.0 4.0 0.00 0.00 0.00 50 1007.4
20260503235539 68 360 0.0 4.0 0.00 0.00 0.00 50 1007.5
20260503235039 68 360 0.0 4.0 0.00 0.00 0.00 49 1007.5
20260503234639 68 360 0.0 5.0 0.00 0.00 0.00 49 1007.5
20260503234039 68 360 1.0 5.0 0.00 0.00 0.00 48 1007.6
20260503233538 68 360 0.0 5.0 0.00 0.00 0.00 49 1007.7
20260503233041 68 360 1.0 5.0 0.00 0.00 0.00 49 1007.7
20260503232537 68 360 1.0 4.0 0.00 0.00 0.00 49 1007.7
20260503232038 68 360 0.0 8.0 0.00 0.00 0.00 48 1007.7
20260503231538 68 360 2.0 8.0 0.00 0.00 0.00 47 1007.7
20260503231036 68 360 1.0 10.0 0.00 0.00 0.00 47 1007.7
20260503230536 68 360 2.0 10.0 0.00 0.00 0.00 47 1007.6
20260503230058 69 360 2.0 10.0 0.00 0.00 0.00 46 1007.8
20260503225535 69 360 2.0 11.0 0.00 0.00 0.00 46 1007.8
20260503225035 69 360 2.0 11.0 0.00 0.00 0.00 47 1007.8
20260503224535 69 360 1.0 10.0 0.00 0.00 0.00 46 1007.7
20260503224034 69 360 2.0 9.0 0.00 0.00 0.00 46 1007.8
20260503223534 69 360 2.0 11.0 0.00 0.00 0.00 46 1007.8
20260503223033 69 360 2.0 11.0 0.00 0.00 0.00 46 1007.9
20260503222534 68 360 3.0 11.0 0.00 0.00 0.00 45 1007.9
20260503222034 68 360 3.0 11.0 0.00 0.00 0.00 45 1007.9
20260503221533 69 360 3.0 11.0 0.00 0.00 0.00 44 1007.9
20260503221032 69 360 2.0 11.0 0.00 0.00 0.00 45 1008.1
20260503220531 69 360 2.0 9.0 0.00 0.00 0.00 45 1008.1
20260503220041 69 360 2.0 8.0 0.00 0.00 0.00 44 1008.1
20260503215529 68 360 2.0 8.0 0.00 0.00 0.00 45 1008.1
20260503215026 68 360 2.0 11.0 0.00 0.00 0.00 45 1008.2
20260503214527 68 360 1.0 11.0 0.00 0.00 0.00 45 1008.2
20260503214030 68 360 3.0 12.0 0.00 0.00 0.00 44 1008.2
20260503213526 68 360 4.0 12.0 0.00 0.00 0.00 44 1008.2
20260503213026 68 360 2.0 17.0 0.00 0.00 0.00 45 1008.3
20260503212525 67 360 3.0 17.0 0.00 0.00 0.00 45 1008.2
20260503212026 67 360 3.0 12.0 0.00 0.00 0.00 44 1008.2
20260503211525 67 360 2.0 11.0 0.00 0.00 0.00 44 1008.2
20260503211025 67 360 3.0 11.0 0.00 0.00 0.00 44 1008.3
20260503210525 67 360 3.0 11.0 0.00 0.00 0.00 45 1008.3
20260503210025 67 360 2.0 12.0 0.00 0.00 0.00 44 1008.2
20260503205524 67 360 3.0 12.0 0.00 0.00 0.00 44 1008.3
20260503205023 67 360 3.0 12.0 0.00 0.00 0.00 44 1008.4
20260503204523 67 360 3.0 20.0 0.00 0.00 0.00 44 1008.3
20260503204022 67 360 5.0 14.0 0.00 0.00 0.00 43 1008.3
20260503203522 68 360 3.0 14.0 0.00 0.00 0.00 43 1008.4
20260503203041 68 360 4.0 14.0 0.00 0.00 0.00 44 1008.5
20260503202520 67 360 3.0 12.0 0.00 0.00 0.00 43 1008.8
20260503202019 67 360 3.0 12.0 0.00 0.00 0.00 42 1008.9
20260503201519 67 360 3.0 16.0 0.00 0.00 0.00 42 1008.8
20260503201019 68 360 3.0 19.0 0.00 0.00 0.00 42 1008.9
20260503200519 68 360 7.0 19.0 0.00 0.00 0.00 41 1008.8
20260503200018 67 360 3.0 19.0 0.00 0.00 0.00 42 1008.9
20260503195517 67 360 4.0 12.0 0.00 0.00 0.00 43 1009.1
20260503195016 67 360 4.0 13.0 0.00 0.00 0.00 43 1009.3
20260503194533 67 360 4.0 15.0 0.00 0.00 0.00 42 1009.2
20260503194016 67 360 3.0 13.0 0.00 0.00 0.00 43 1009.1
20260503193516 67 360 5.0 13.0 0.00 0.00 0.00 42 1009.2
20260503193015 67 360 3.0 12.0 0.00 0.00 0.00 43 1009.3
20260503192514 67 360 4.0 12.0 0.00 0.00 0.00 42 1009.4
20260503192013 67 360 4.0 12.0 0.00 0.00 0.00 42 1009.4
20260503191512 66 360 2.0 19.0 0.00 0.00 0.00 46 1009.2
20260503191012 66 360 3.0 19.0 0.00 0.00 0.00 44 1009.5
20260503190512 66 360 4.0 12.0 0.00 0.00 0.00 43 1009.6
20260503190011 66 360 3.0 12.0 0.00 0.00 0.00 44 1009.4
20260503185513 66 360 4.0 14.0 0.00 0.00 0.00 44 1009.7
20260503185007 65 360 5.0 14.0 0.00 0.00 0.00 43 1009.7
20260503184507 64 360 4.0 13.0 0.00 0.00 0.00 45 1010.0
20260503184007 64 360 4.0 10.0 0.00 0.00 0.00 44 1010.0
20260503183506 64 360 4.0 18.0 0.00 0.00 0.00 45 1010.0
20260503183005 64 360 4.0 18.0 0.00 0.00 0.00 46 1010.1
20260503182505 64 360 4.0 14.0 0.00 0.00 0.00 49 1010.3
20260503182003 63 360 5.0 14.0 0.00 0.00 0.00 46 1010.3
20260503181504 64 360 4.0 12.0 0.00 0.00 0.00 48 1010.4
20260503181004 63 360 4.0 14.0 0.00 0.00 0.00 48 1010.5
20260503180501 63 360 4.0 13.0 0.00 0.00 0.00 50 1010.5
20260503180100 63 360 3.0 13.0 0.00 0.00 0.00 50 1010.7
20260503175558 62 360 2.0 16.0 0.00 0.00 0.00 51 1010.9
20260503175056 62 360 5.0 18.0 0.00 0.00 0.00 49 1011.2
20260503174555 61 360 4.0 18.0 0.00 0.00 0.00 50 1011.3
20260503174055 61 360 2.0 13.0 0.00 0.00 0.00 50 1011.6
20260503173554 62 360 3.0 13.0 0.00 0.00 0.00 48 1011.8
20260503173054 62 360 4.0 9.0 0.00 0.00 0.00 49 1011.8
20260503172553 61 360 3.0 12.0 0.00 0.00 0.00 49 1011.6
20260503172051 61 360 4.0 14.0 0.00 0.00 0.00 49 1012.3
20260503171550 61 360 2.0 14.0 0.00 0.00 0.00 50 1012.4
20260503171049 61 360 2.0 8.0 0.00 0.00 0.00 52 1012.7
20260503170547 60 360 2.0 11.0 0.00 0.00 0.00 53 1013.0
20260503150526 56 360 2.0 9.0 0.00 0.00 0.00 61 1014.9
20260503131004 49 360 1.0 4.0 0.00 0.00 0.00 72 1016.3
20260503130502 48 360 0.0 5.0 0.00 0.00 0.00 73 1016.3
20260503110542 45 360 0.0 4.0 0.00 0.00 0.00 74 1016.0
20260503081536 44 360 0.0 4.0 0.00 0.00 0.00 69 1016.6
20260503081030 44 360 0.0 4.0 0.00 0.00 0.00 69 1016.7
20260503080529 44 360 0.0 4.0 0.00 0.00 0.00 70 1016.7
20260503072528 44 360 0.0 0.0 0.00 0.00 0.00 70 1016.7
20260503072027 44 360 0.0 0.0 0.00 0.00 0.00 70 1016.8
20260503071527 44 360 0.0 0.0 0.00 0.00 0.00 69 1016.8
20260503071025 44 360 0.0 1.0 0.00 0.00 0.00 69 1016.8
20260503070525 44 360 0.0 3.0 0.00 0.00 0.00 68 1016.8